[[{"header":{"parameterUnit":"m.s-1","parameterCategory":1,"la1":30.2991,"la2":30.254,"lo1":-89.0895,"lo2":-89.0444,"dy":0.0017,"dx":0.0017,"nx":28,"ny":28,"refTime":"2025-04-15T21:00:00:Z","depth":0,"parameterNumber":2,"parameterNumberName":"U-component_of_WINDS"},"data":[0,0,0,0,0,0,0,0,0,0,0,0,0,0,0,0,0,0,0,0,0,0,0,0,0,0,0,0,0,0,0,0,0,0,0,0,0,0,0,0,0,0,0,0,0,0,0,0,0,0,0,0,0,0,0,0,0,0,-0.695,-0.6949,0,-0.6858,-0.6857,-0.6855,-0.6744,-0.6743,-0.6741,-0.6739,-0.6646,-0.6645,-0.6644,0,0,0,0,0,0,0,0,0,0,0,0,0,-0.7033,-0.7032,-0.695,-0.6949,-0.6948,-0.6858,-0.6856,-0.6855,-0.6745,-0.6743,-0.6741,-0.6739,-0.6646,-0.6645,-0.6644,0,0,0,0,0,0,0,0,0,0,0,0,0,-0.6974,-0.7031,-0.695,-0.6882,-0.6874,-0.6858,-0.6856,-0.6855,-0.6745,-0.6743,-0.674,-0.6738,-0.6646,-0.6645,-0.6644,-0.6687,0,0,-0.664,-0.6639,0,0,0,0,0,0,0,0,-0.6978,-0.6971,-0.6893,-0.6886,-0.6878,-0.681,-0.6851,-0.6799,-0.6746,-0.6794,-0.6739,-0.6736,-0.6703,-0.6696,-0.6685,-0.6683,-0.6679,-0.664,-0.6639,-0.6638,-0.6638,0,0,0,0,0,0,0,-0.6982,-0.6975,-0.6913,-0.6892,-0.6883,-0.6856,-0.6845,-0.6841,-0.6764,-0.679,-0.6782,-0.6772,-0.6698,-0.6686,-0.6682,-0.6678,-0.664,-0.6639,-0.6638,-0.6637,-0.6709,-0.6712,0,0,0,0,0,0,-0.6996,-0.6979,-0.6916,-0.6911,-0.6923,-0.6857,-0.6844,-0.6834,-0.6764,-0.6751,-0.6775,-0.6767,-0.669,-0.6684,-0.6678,-0.6725,-0.6638,-0.6637,-0.6636,-0.6706,-0.671,-0.6713,0,0,0,0,0,0,-0.6998,-0.6991,-0.692,-0.6942,-0.6931,-0.6858,-0.6848,-0.6834,-0.6822,-0.6752,-0.6738,-0.6776,-0.6688,-0.668,-0.6686,-0.672,-0.6637,-0.6635,-0.6703,-0.6707,-0.6711,-0.682,0,0,0,0,0,0,-0.7001,-0.6993,-0.7008,-0.6944,-0.693,-0.6929,-0.685,-0.6834,-0.682,-0.681,-0.675,-0.6738,-0.6685,-0.6689,-0.6685,-0.6717,-0.6634,-0.67,-0.6705,-0.671,-0.6813,-0.6827,-0.6839,0,0,0,0,0,-0.7004,-0.7042,-0.7009,-0.7002,-0.6948,-0.6931,-0.6924,-0.6862,-0.6823,-0.6838,-0.6794,-0.674,-0.6718,-0.6691,-0.6685,-0.6717,-0.6697,-0.6704,-0.671,-0.6807,-0.6824,-0.6839,0,0,0,0,0,0,-0.7112,-0.7032,-0.6995,-0.7013,-0.698,-0.6913,-0.6929,-0.6882,-0.6859,-0.6851,-0.6775,-0.6763,-0.6779,-0.6749,-0.672,-0.6757,-0.67,-0.6705,-0.6776,-0.6792,-0.6805,-0.6811,-0.6633,0,0,0,0,0,-0.7138,-0.7131,-0.7062,-0.7084,-0.7069,-0.7003,-0.6993,-0.6949,-0.6912,-0.6897,-0.6853,-0.6819,-0.6805,-0.6797,-0.6779,-0.6809,-0.6795,-0.6828,-0.6842,-0.6853,-0.6858,-0.6873,-0.6887,-0.6733,-0.6733,-0.6732,0,0,-0.7191,-0.7147,-0.7146,-0.7105,-0.7074,-0.7069,-0.6992,-0.6989,-0.6985,-0.6897,-0.69,-0.6867,-0.6825,-0.6843,-0.6849,-0.6819,-0.6898,-0.6861,-0.687,-0.6869,-0.6881,-0.6896,-0.6909,-0.6737,-0.6736,-0.6735,0,0,-0.7285,-0.7251,-0.7266,-0.7237,-0.7192,-0.7148,-0.7152,-0.7092,-0.7067,-0.7069,-0.7003,-0.6998,-0.6974,-0.6947,-0.6931,-0.7018,-0.6968,-0.7015,-0.7083,-0.7099,-0.7111,-0.7121,-0.7153,-0.7166,-0.702,-0.7021,-0.7021,0,-0.7357,-0.7346,-0.728,-0.7282,-0.7266,-0.7187,-0.7203,-0.7178,-0.713,-0.7121,-0.7088,-0.7058,-0.7024,-0.7035,-0.7057,-0.7046,-0.7049,-0.702,-0.7115,-0.7124,-0.7133,-0.7163,-0.7175,-0.7027,-0.7026,-0.7025,-0.7025,0,-0.7437,-0.7431,-0.7449,-0.7405,-0.7391,-0.74,-0.7337,-0.7331,-0.7289,-0.7249,-0.7254,-0.721,-0.7184,-0.7183,-0.7141,-0.719,-0.7173,-0.7128,-0.7069,-0.7155,-0.7182,-0.7192,-0.7035,-0.7033,-0.7031,-0.703,0,0,-0.7594,-0.7515,-0.7523,-0.7502,-0.7448,-0.7442,-0.7449,-0.7423,-0.742,-0.739,-0.7394,-0.7378,-0.7337,-0.7318,-0.7273,-0.7287,-0.736,-0.7241,-0.7238,-0.7265,-0.7412,-0.7446,-0.746,-0.7327,-0.7329,-0.7331,-0.7416,0,-0.7678,-0.7684,-0.7626,-0.7648,-0.7642,-0.7568,-0.7574,-0.7542,-0.7506,-0.7497,-0.7456,-0.7446,-0.7393,-0.7381,-0.7391,-0.7349,-0.7389,-0.7342,-0.7331,-0.7332,-0.7344,-0.7473,-0.7508,-0.7591,-0.7426,-0.7428,-0.7429,0,-0.7776,-0.7752,-0.7774,-0.772,-0.7716,-0.7722,-0.7695,-0.7687,-0.765,-0.7622,-0.7603,-0.7552,-0.7556,-0.7501,-0.7506,-0.7476,-0.7469,-0.7448,-0.7449,-0.7445,-0.7385,-0.7473,-0.7615,-0.7628,-0.7444,-0.7443,-0.7442,0,-0.7889,-0.7863,-0.7872,-0.7857,-0.7795,-0.7801,-0.7776,-0.7736,-0.7725,-0.7702,-0.7694,-0.7672,-0.766,-0.7644,-0.7589,-0.7554,-0.7602,-0.7541,-0.7579,-0.7581,-0.7592,-0.7592,-0.7735,-0.7588,-0.7588,-0.7588,-0.7587,0,-0.7989,-0.8005,-0.7922,-0.7929,-0.7945,-0.788,-0.7898,-0.7866,-0.7832,-0.7831,-0.7766,-0.7767,-0.7694,-0.7688,-0.7645,-0.7657,-0.7651,-0.763,-0.7618,-0.7636,-0.7639,-0.7629,-0.7622,-0.7591,-0.759,-0.7589,-0.7589,0,-0.8117,-0.8062,-0.8068,-0.8009,-0.7995,-0.801,-0.796,-0.7964,-0.7924,-0.7924,-0.7921,-0.7859,-0.7848,-0.7792,-0.7768,-0.7739,-0.7766,-0.7743,-0.7778,-0.7771,-0.7812,-0.7809,-0.7953,-0.7969,-0.7813,-0.7815,-0.7816,0,-0.8183,-0.8194,-0.8137,-0.8132,-0.8109,-0.8102,-0.809,-0.8027,-0.8018,-0.7979,-0.7988,-0.7972,-0.7955,-0.7942,-0.7895,-0.7877,-0.7853,-0.7905,-0.785,-0.7867,-0.7854,-0.7854,-0.7855,-0.7917,-0.7919,-0.792,-0.7922,0,-0.8308,-0.8281,-0.8267,-0.8244,-0.8233,-0.8212,-0.8187,-0.8187,-0.8117,-0.8111,-0.8099,-0.8087,-0.8063,-0.8048,-0.8023,-0.7997,-0.7949,-0.794,-0.7948,-0.7965,-0.7985,-0.7975,-0.781,-0.7936,-0.7935,-0.7934,-0.7933,-0.7932,-0.8407,-0.8414,-0.8375,-0.8362,-0.8337,-0.8317,-0.8318,-0.8279,-0.8268,-0.8244,-0.8208,-0.8201,-0.8166,-0.8127,-0.8106,-0.81,-0.8072,-0.8084,-0.8086,-0.809,-0.8099,-0.7987,-0.8096,-0.8095,-0.8095,-0.8094,-0.8094,0,-0.8528,-0.85,-0.8489,-0.8457,-0.8448,-0.8403,-0.8375,-0.837,-0.8365,-0.8336,-0.8322,-0.831,-0.8296,-0.825,-0.8231,-0.8236,-0.8214,-0.8234,-0.8232,-0.8228,-0.8125,-0.812,-0.8252,-0.8252,-0.8252,-0.8252,-0.8252,-0.8252,-0.859,-0.86,-0.8569,-0.8566,-0.8538,-0.8531,-0.8519,-0.85,-0.8477,-0.8466,-0.8454,-0.8424,-0.8389,-0.8368,-0.8354,-0.8341,-0.8337,-0.8365,-0.8345,-0.825,-0.8234,-0.822,-0.8215,-0.8365,-0.8365,-0.8447,-0.8448,-0.8449]},{"header":{"parameterUnit":"m.s-1","parameterCategory":1,"la1":30.2991,"la2":30.254,"lo1":-89.0895,"lo2":-89.0444,"dy":0.0017,"dx":0.0017,"nx":28,"ny":28,"refTime":"2025-04-15T21:00:00:Z","depth":0,"parameterNumber":3,"parameterNumberName":"V-component_of_WINDS"},"data":[0,0,0,0,0,0,0,0,0,0,0,0,0,0,0,0,0,0,0,0,0,0,0,0,0,0,0,0,0,0,0,0,0,0,0,0,0,0,0,0,0,0,0,0,0,0,0,0,0,0,0,0,0,0,0,0,0,0,3.1725,3.1725,0,3.1736,3.1736,3.1736,3.1786,3.1787,3.1788,3.1789,3.1795,3.1794,3.1793,0,0,0,0,0,0,0,0,0,0,0,0,0,3.1744,3.1743,3.1725,3.1725,3.1725,3.1736,3.1736,3.1736,3.1786,3.1787,3.1789,3.179,3.1795,3.1794,3.1793,0,0,0,0,0,0,0,0,0,0,0,0,0,3.1743,3.1743,3.1725,3.1752,3.1754,3.1736,3.1736,3.1736,3.1785,3.1787,3.1789,3.1791,3.1796,3.1794,3.1793,3.1748,0,0,3.1788,3.1788,0,0,0,0,0,0,0,0,3.1743,3.1742,3.1748,3.175,3.1753,3.1762,3.1745,3.174,3.1785,3.1773,3.1789,3.1792,3.1782,3.1782,3.178,3.1748,3.1748,3.1788,3.1787,3.1787,3.1786,0,0,0,0,0,0,0,3.1743,3.1742,3.1729,3.1748,3.1751,3.1762,3.1764,3.1744,3.1767,3.1774,3.1778,3.1779,3.1784,3.1781,3.178,3.1748,3.1788,3.1787,3.1786,3.1785,3.1681,3.1679,0,0,0,0,0,0,3.174,3.1742,3.1729,3.1729,3.1752,3.176,3.1762,3.1757,3.1768,3.1771,3.1777,3.1781,3.1782,3.1782,3.178,3.1728,3.1787,3.1785,3.1784,3.1683,3.1681,3.1679,0,0,0,0,0,0,3.174,3.1738,3.1728,3.1737,3.1736,3.1758,3.1751,3.1756,3.1753,3.177,3.1774,3.1771,3.1784,3.1782,3.1756,3.1729,3.1785,3.1783,3.1685,3.1682,3.168,3.1624,0,0,0,0,0,0,3.1741,3.1738,3.1722,3.1736,3.1736,3.1705,3.175,3.1755,3.1751,3.1756,3.1765,3.1768,3.1785,3.1758,3.1755,3.1728,3.1782,3.1688,3.1684,3.168,3.1628,3.162,3.1612,0,0,0,0,0,3.1741,3.1705,3.1721,3.1719,3.1716,3.1703,3.1703,3.1725,3.1749,3.1732,3.1743,3.1767,3.1733,3.1755,3.1751,3.1724,3.1689,3.1685,3.1681,3.1632,3.1621,3.1612,0,0,0,0,0,0,3.1685,3.1707,3.1725,3.1693,3.1696,3.1712,3.1691,3.1713,3.1708,3.1713,3.174,3.1741,3.171,3.1715,3.1739,3.1682,3.1715,3.171,3.1679,3.167,3.1662,3.166,3.1781,0,0,0,0,0,3.1669,3.1658,3.1678,3.1647,3.1648,3.1669,3.1664,3.1682,3.1685,3.1686,3.1695,3.1696,3.1686,3.1678,3.167,3.163,3.1632,3.161,3.1602,3.1595,3.159,3.1569,3.1559,3.1664,3.1665,3.1665,0,0,3.1636,3.1647,3.1637,3.1636,3.164,3.1627,3.167,3.1654,3.1643,3.1683,3.1659,3.1666,3.1669,3.1636,3.1621,3.1638,3.1561,3.159,3.1584,3.1582,3.1563,3.1553,3.1544,3.1662,3.1662,3.1663,0,0,3.1567,3.1575,3.155,3.1555,3.1562,3.1577,3.1571,3.1584,3.159,3.1567,3.1597,3.1585,3.1566,3.1567,3.1565,3.15,3.1521,3.1496,3.1453,3.1432,3.1424,3.1417,3.1392,3.1383,3.1491,3.1491,3.1491,0,3.1524,3.1506,3.1534,3.1517,3.1515,3.1553,3.1527,3.153,3.1533,3.153,3.155,3.1529,3.1533,3.1501,3.1485,3.1483,3.1476,3.1494,3.1423,3.1416,3.141,3.1387,3.1377,3.1488,3.1488,3.1488,3.1489,0,3.1452,3.144,3.1419,3.1423,3.1419,3.1397,3.1421,3.1414,3.1432,3.1444,3.142,3.1428,3.1421,3.1415,3.1432,3.1385,3.1395,3.1419,3.1453,3.1396,3.1375,3.1366,3.1483,3.1484,3.1485,3.1486,0,0,3.1346,3.1368,3.136,3.1363,3.1374,3.1364,3.1344,3.134,3.1333,3.1334,3.1317,3.1302,3.1324,3.1322,3.134,3.1322,3.1268,3.1348,3.1348,3.1331,3.1216,3.1197,3.1186,3.1284,3.1282,3.1281,3.1215,0,3.128,3.1249,3.1274,3.1237,3.1226,3.1263,3.1245,3.125,3.1261,3.1252,3.1264,3.1253,3.1284,3.1283,3.1267,3.1278,3.1245,3.1284,3.1266,3.1265,3.1263,3.1175,3.1155,3.1092,3.1207,3.1206,3.1205,0,3.1198,3.1198,3.1161,3.1176,3.1172,3.1156,3.1154,3.1146,3.1151,3.1161,3.116,3.1182,3.1163,3.1198,3.1171,3.1197,3.1191,3.1196,3.1194,3.1192,3.123,3.1169,3.1073,3.1063,3.1192,3.1193,3.1194,0,3.1123,3.1114,3.109,3.1091,3.1108,3.1096,3.1102,3.1111,3.1107,3.1105,3.1103,3.1098,3.1095,3.1091,3.1112,3.1136,3.1081,3.1118,3.1087,3.1086,3.1072,3.1072,3.0972,3.1072,3.1072,3.1072,3.1072,0,3.1046,3.1021,3.1057,3.1042,3.1015,3.1045,3.1017,3.1027,3.1034,3.1021,3.1053,3.104,3.1069,3.1058,3.1074,3.1049,3.1047,3.1053,3.1057,3.1049,3.1048,3.1045,3.1049,3.1069,3.107,3.107,3.1071,0,3.0956,3.098,3.0956,3.0975,3.098,3.0959,3.0974,3.0961,3.0976,3.0959,3.0957,3.0979,3.0968,3.0989,3.0981,3.0992,3.0955,3.0967,3.0954,3.0957,3.0924,3.0926,3.0816,3.0803,3.0912,3.0911,3.091,0,3.0904,3.0886,3.0904,3.0899,3.0904,3.0894,3.0891,3.092,3.0915,3.0921,3.0907,3.0899,3.0895,3.0876,3.089,3.0884,3.0895,3.0857,3.0894,3.0887,3.0893,3.0893,3.0891,3.0849,3.0847,3.0846,3.0845,0,3.0809,3.0822,3.0817,3.0816,3.0812,3.0813,3.0815,3.0809,3.0839,3.0832,3.0823,3.0819,3.0812,3.0804,3.0801,3.0806,3.083,3.0834,3.0826,3.0817,3.0809,3.0812,3.0931,3.0836,3.0837,3.0837,3.0838,3.0838,3.0736,3.0722,3.0733,3.0726,3.0732,3.0734,3.0722,3.0736,3.073,3.0727,3.0744,3.0731,3.0738,3.0738,3.074,3.073,3.0746,3.0735,3.0732,3.0729,3.0723,3.0813,3.0729,3.073,3.073,3.073,3.0731,0,3.0641,3.0651,3.0645,3.0648,3.0643,3.0669,3.0673,3.0667,3.0655,3.0661,3.0656,3.0645,3.0638,3.0653,3.0648,3.0636,3.0647,3.0634,3.0634,3.0634,3.0709,3.0715,3.0625,3.0625,3.0625,3.0625,3.0625,3.0625,3.0591,3.0569,3.0583,3.0564,3.0573,3.0562,3.0562,3.0563,3.0568,3.0555,3.055,3.0561,3.0569,3.0565,3.0559,3.0564,3.056,3.0542,3.055,3.0619,3.0629,3.0639,3.0645,3.0542,3.0541,3.0477,3.0476,3.0476]}]]